QPF
0.00 0.00 0.00 0.00 0.00 0.00 0.00 0.00 0.00 0.00 0.00 0.00 0.00 0.00 0.00 0.00 0.00 0.00 0.01 0.02 0.05 0.10 0.20 0.33 0.52 0.84 1.21 1.57 1.98 2.13 2.00 1.58 1.17 0.91 0.71 0.52 0.32 0.19 0.12 0.08 0.06 0.03 0.01 0.00
0.00 0.00 0.00 0.00 0.00 0.00 0.00 0.00 0.00 0.00 0.00 0.00 0.00 0.00 0.00 0.00 0.01 0.01 0.01 0.03 0.05 0.09 0.18 0.34 0.59 1.00 1.17 1.40 1.85 1.98 1.58 1.14 0.90 0.72 0.57 0.42 0.29 0.23 0.20 0.12 0.06 0.03 0.01 0.00
0.00 0.00 0.00 0.00 0.00 0.00 0.00 0.00 0.00 0.00 0.00 0.00 0.00 0.00 0.01 0.01 0.01 0.02 0.03 0.04 0.06 0.10 0.16 0.24 0.43 0.63 0.66 0.78 0.91 0.84 0.75 0.57 0.51 0.46 0.41 0.37 0.28 0.24 0.17 0.11 0.07 0.06 0.04 0.02
0.00 0.00 0.00 0.00 0.00 0.00 0.00 0.00 0.00 0.00 0.00 0.00 0.00 0.00 0.02 0.03 0.04 0.05 0.05 0.06 0.06 0.07 0.07 0.11 0.16 0.24 0.25 0.23 0.23 0.27 0.35 0.33 0.34 0.37 0.28 0.29 0.25 0.20 0.14 0.08 0.07 0.07 0.05 0.03
0.00 0.00 0.00 0.00 0.00 0.00 0.00 0.00 0.00 0.00 0.00 0.00 0.00 0.01 0.02 0.04 0.07 0.12 0.15 0.11 0.06 0.04 0.03 0.06 0.06 0.07 0.08 0.08 0.10 0.13 0.22 0.28 0.28 0.27 0.20 0.16 0.15 0.12 0.09 0.09 0.10 0.10 0.07 0.05
0.01 0.01 0.01 0.00 0.00 0.00 0.00 0.00 0.00 0.00 0.01 0.02 0.03 0.04 0.07 0.11 0.16 0.25 0.24 0.15 0.07 0.03 0.01 0.01 0.02 0.02 0.03 0.06 0.07 0.08 0.11 0.14 0.16 0.17 0.15 0.13 0.12 0.12 0.11 0.10 0.10 0.09 0.09 0.08
0.04 0.02 0.01 0.00 0.00 0.00 0.00 0.00 0.00 0.00 0.01 0.02 0.03 0.06 0.13 0.25 0.35 0.42 0.28 0.14 0.06 0.02 0.01 0.00 0.00 0.01 0.01 0.02 0.03 0.04 0.05 0.07 0.09 0.10 0.11 0.11 0.12 0.12 0.12 0.09 0.08 0.08 0.08 0.10
0.02 0.02 0.01 0.00 0.01 0.01 0.01 0.01 0.00 0.00 0.00 0.01 0.03 0.09 0.21 0.28 0.36 0.30 0.15 0.06 0.02 0.01 0.00 0.00 0.00 0.00 0.00 0.00 0.01 0.01 0.01 0.02 0.02 0.03 0.04 0.04 0.06 0.08 0.09 0.09 0.08 0.07 0.09 0.12
0.00 0.01 0.01 0.01 0.02 0.03 0.02 0.01 0.01 0.00 0.00 0.01 0.05 0.11 0.15 0.18 0.22 0.16 0.08 0.03 0.01 0.00 0.00 0.00 0.00 0.00 0.00 0.00 0.00 0.00 0.00 0.00 0.00 0.00 0.01 0.01 0.02 0.03 0.05 0.06 0.06 0.07 0.09 0.11
0.00 0.00 0.00 0.01 0.01 0.02 0.02 0.02 0.01 0.01 0.01 0.01 0.03 0.10 0.14 0.15 0.12 0.10 0.06 0.02 0.01 0.00 0.00 0.00 0.00 0.00 0.00 0.00 0.00 0.00 0.00 0.00 0.00 0.00 0.00 0.00 0.00 0.01 0.01 0.01 0.02 0.03 0.04 0.05
0.00 0.00 0.00 0.00 0.01 0.02 0.03 0.03 0.02 0.02 0.01 0.02 0.03 0.07 0.09 0.10 0.10 0.07 0.04 0.02 0.01 0.00 0.00 0.00 0.00 0.00 0.00 0.00 0.00 0.00 0.00 0.00 0.00 0.00 0.00 0.00 0.00 0.00 0.00 0.00 0.00 0.00 0.01 0.01
0.00 0.00 0.00 0.01 0.02 0.03 0.04 0.03 0.03 0.03 0.02 0.02 0.03 0.05 0.04 0.05 0.04 0.03 0.02 0.01 0.00 0.00 0.00 0.00 0.00 0.00 0.00 0.00 0.00 0.00 0.00 0.00 0.00 0.00 0.00 0.00 0.00 0.00 0.00 0.00 0.00 0.00 0.00 0.00
0.00 0.00 0.00 0.01 0.02 0.04 0.04 0.04 0.03 0.04 0.03 0.02 0.04 0.04 0.02 0.01 0.01 0.01 0.00 0.00 0.00 0.00 0.00 0.00 0.00 0.00 0.00 0.00 0.00 0.00 0.00 0.00 0.00 0.00 0.00 0.00 0.00 0.00 0.00 0.00 0.00 0.00 0.00 0.00
0.00 0.00 0.00 0.01 0.01 0.02 0.04 0.05 0.07 0.05 0.03 0.02 0.02 0.02 0.01 0.01 0.01 0.00 0.00 0.00 0.00 0.00 0.00 0.00 0.00 0.00 0.00 0.00 0.00 0.00 0.00 0.00 0.00 0.00 0.00 0.00 0.00 0.00 0.00 0.00 0.00 0.00 0.00 0.00
0.00 0.00 0.00 0.00 0.01 0.02 0.03 0.05 0.06 0.04 0.02 0.01 0.00 0.00 0.00 0.00 0.00 0.00 0.00 0.00 0.00 0.00 0.00 0.00 0.00 0.00 0.00 0.00 0.00 0.00 0.00 0.00 0.00 0.00 0.00 0.00 0.00 0.00 0.00 0.00 0.00 0.00 0.00 0.00
0.00 0.00 0.00 0.00 0.01 0.01 0.03 0.06 0.04 0.01 0.01 0.00 0.00 0.00 0.00 0.00 0.00 0.00 0.00 0.00 0.00 0.00 0.00 0.00 0.00 0.00 0.00 0.00 0.00 0.00 0.00 0.00 0.00 0.00 0.00 0.00 0.00 0.00 0.00 0.00 0.00 0.00 0.00 0.00
0.00 0.00 0.00 0.00 0.00 0.00 0.02 0.03 0.01 0.00 0.00 0.00 0.00 0.00 0.00 0.00 0.00 0.00 0.00 0.00 0.00 0.00 0.00 0.00 0.00 0.00 0.00 0.00 0.00 0.00 0.00 0.00 0.00 0.00 0.00 0.00 0.00 0.00 0.00 0.00 0.00 0.00 0.00 0.00
0.00 0.00 0.00 0.00 0.00 0.02 0.01 0.00 0.00 0.00 0.00 0.00 0.00 0.00 0.00 0.00 0.00 0.00 0.00 0.00 0.00 0.00 0.00 0.00 0.00 0.00 0.00 0.00 0.00 0.00 0.00 0.00 0.00 0.00 0.00 0.00 0.00 0.00 0.00 0.00 0.00 0.00 0.00 0.01
0.00 0.00 0.00 0.00 0.00 0.01 0.01 0.00 0.00 0.00 0.00 0.00 0.00 0.00 0.00 0.00 0.00 0.00 0.00 0.00 0.00 0.00 0.00 0.00 0.00 0.00 0.00 0.00 0.00 0.00 0.00 0.00 0.01 0.01 0.01 0.01 0.01 0.01 0.01 0.00 0.00 0.00 0.01 0.01
0.00 0.00 0.00 0.00 0.00 0.01 0.01 0.00 0.00 0.00 0.00 0.00 0.00 0.00 0.00 0.00 0.00 0.00 0.00 0.00 0.00 0.00 0.00 0.00 0.00 0.00 0.00 0.00 0.00 0.01 0.01 0.01 0.01 0.02 0.02 0.02 0.02 0.02 0.02 0.01 0.01 0.00 0.01 0.01
0.00 0.00 0.00 0.00 0.00 0.00 0.00 0.00 0.00 0.00 0.00 0.00 0.00 0.00 0.00 0.00 0.00 0.00 0.00 0.00 0.00 0.00 0.00 0.00 0.00 0.00 0.00 0.00 0.01 0.02 0.02 0.02 0.02 0.03 0.03 0.03 0.03 0.03 0.02 0.02 0.01 0.01 0.01 0.01
0.00 0.00 0.00 0.00 0.00 0.00 0.00 0.00 0.00 0.00 0.00 0.00 0.00 0.00 0.00 0.00 0.00 0.00 0.00 0.00 0.00 0.00 0.00 0.00 0.00 0.00 0.00 0.00 0.02 0.03 0.02 0.02 0.03 0.03 0.03 0.02 0.02 0.02 0.02 0.02 0.02 0.02 0.01 0.01
0.00 0.00 0.00 0.00 0.00 0.00 0.00 0.00 0.00 0.00 0.00 0.00 0.00 0.00 0.00 0.00 0.00 0.00 0.00 0.00 0.00 0.00 0.00 0.00 0.00 0.00 0.00 0.01 0.02 0.03 0.03 0.03 0.03 0.03 0.03 0.03 0.03 0.03 0.03 0.03 0.03 0.02 0.02 0.01
0.00 0.00 0.00 0.00 0.00 0.00 0.00 0.00 0.00 0.00 0.00 0.00 0.00 0.00 0.00 0.00 0.00 0.00 0.00 0.00 0.00 0.00 0.00 0.00 0.01 0.01 0.01 0.01 0.01 0.02 0.03 0.04 0.04 0.04 0.04 0.04 0.05 0.04 0.05 0.05 0.04 0.03 0.02 0.02
0.00 0.00 0.00 0.00 0.00 0.00 0.00 0.00 0.00 0.00 0.00 0.00 0.00 0.00 0.00 0.00 0.00 0.00 0.00 0.00 0.00 0.00 0.00 0.01 0.01 0.01 0.02 0.01 0.02 0.02 0.03 0.04 0.05 0.04 0.04 0.05 0.05 0.05 0.05 0.05 0.04 0.04 0.03 0.02
0.00 0.00 0.00 0.00 0.00 0.00 0.00 0.00 0.00 0.00 0.00 0.00 0.00 0.00 0.00 0.00 0.00 0.00 0.00 0.00 0.00 0.00 0.01 0.01 0.02 0.02 0.02 0.02 0.03 0.03 0.04 0.05 0.06 0.06 0.05 0.06 0.06 0.06 0.05 0.04 0.04 0.03 0.02 0.01
MSLP
1009.97 1010.74 1011.25 1011.47 1011.45 1011.23 1010.90 1010.55 1010.26 1010.08 1010.04 1010.13 1010.33 1010.62 1010.95 1011.30 1011.65 1011.97 1012.24 1012.45 1012.59 1012.64 1012.59 1012.43 1012.17 1011.83 1011.44 1011.04 1010.67 1010.35 1010.09 1009.91 1009.79 1009.70 1009.63 1009.55 1009.44 1009.32 1009.20 1009.10 1009.05 1009.07 1009.19 1009.41
1010.55 1011.12 1011.42 1011.46 1011.29 1011.02 1010.72 1010.50 1010.41 1010.48 1010.69 1011.03 1011.44 1011.88 1012.30 1012.69 1013.02 1013.29 1013.49 1013.62 1013.66 1013.61 1013.44 1013.16 1012.76 1012.28 1011.75 1011.22 1010.75 1010.36 1010.08 1009.92 1009.85 1009.83 1009.83 1009.80 1009.72 1009.59 1009.41 1009.23 1009.07 1008.98 1008.99 1009.13
1010.96 1011.32 1011.42 1011.30 1011.05 1010.77 1010.56 1010.50 1010.64 1010.97 1011.44 1012.00 1012.57 1013.11 1013.57 1013.92 1014.18 1014.34 1014.44 1014.46 1014.40 1014.25 1014.01 1013.64 1013.17 1012.61 1012.01 1011.42 1010.90 1010.48 1010.20 1010.06 1010.04 1010.07 1010.13 1010.14 1010.09 1009.94 1009.72 1009.46 1009.21 1009.02 1008.93 1008.97
1011.21 1011.37 1011.29 1011.05 1010.76 1010.53 1010.46 1010.61 1010.99 1011.57 1012.27 1013.01 1013.70 1014.28 1014.70 1014.97 1015.09 1015.12 1015.06 1014.95 1014.80 1014.58 1014.29 1013.90 1013.41 1012.86 1012.25 1011.66 1011.14 1010.73 1010.47 1010.35 1010.36 1010.43 1010.52 1010.56 1010.52 1010.36 1010.11 1009.80 1009.47 1009.19 1009.01 1008.95
1011.35 1011.31 1011.08 1010.77 1010.49 1010.36 1010.45 1010.82 1011.45 1012.26 1013.15 1014.02 1014.77 1015.33 1015.67 1015.80 1015.76 1015.60 1015.39 1015.15 1014.90 1014.64 1014.34 1013.97 1013.54 1013.03 1012.49 1011.95 1011.47 1011.09 1010.86 1010.76 1010.78 1010.86 1010.96 1011.01 1010.97 1010.81 1010.55 1010.20 1009.83 1009.48 1009.21 1009.06
1011.45 1011.23 1010.88 1010.53 1010.30 1010.28 1010.55 1011.13 1011.97 1012.97 1014.01 1014.96 1015.72 1016.21 1016.43 1016.40 1016.17 1015.84 1015.46 1015.10 1014.78 1014.49 1014.22 1013.91 1013.56 1013.16 1012.71 1012.26 1011.84 1011.51 1011.30 1011.21 1011.22 1011.30 1011.39 1011.44 1011.39 1011.24 1010.97 1010.62 1010.22 1009.84 1009.51 1009.27
1011.56 1011.19 1010.76 1010.40 1010.22 1010.32 1010.75 1011.50 1012.51 1013.64 1014.76 1015.74 1016.46 1016.87 1016.95 1016.75 1016.36 1015.86 1015.35 1014.89 1014.52 1014.23 1013.99 1013.77 1013.52 1013.23 1012.90 1012.54 1012.20 1011.92 1011.72 1011.62 1011.61 1011.66 1011.73 1011.76 1011.71 1011.56 1011.31 1010.98 1010.59 1010.20 1009.84 1009.55
1011.74 1011.26 1010.78 1010.42 1010.30 1010.50 1011.04 1011.90 1013.00 1014.19 1015.34 1016.29 1016.95 1017.25 1017.22 1016.88 1016.35 1015.74 1015.13 1014.61 1014.21 1013.92 1013.73 1013.59 1013.44 1013.25 1013.02 1012.75 1012.47 1012.22 1012.03 1011.91 1011.86 1011.87 1011.90 1011.91 1011.86 1011.72 1011.51 1011.21 1010.86 1010.49 1010.14 1009.82
1011.97 1011.44 1010.95 1010.62 1010.54 1010.80 1011.40 1012.31 1013.42 1014.60 1015.71 1016.60 1017.17 1017.39 1017.26 1016.84 1016.23 1015.54 1014.89 1014.33 1013.92 1013.65 1013.49 1013.40 1013.32 1013.21 1013.05 1012.84 1012.60 1012.36 1012.15 1012.00 1011.91 1011.86 1011.85 1011.83 1011.77 1011.66 1011.49 1011.25 1010.97 1010.65 1010.33 1010.02
1012.24 1011.72 1011.26 1010.98 1010.95 1011.23 1011.83 1012.72 1013.77 1014.88 1015.89 1016.69 1017.18 1017.32 1017.14 1016.68 1016.05 1015.35 1014.69 1014.14 1013.73 1013.47 1013.32 1013.25 1013.19 1013.10 1012.97 1012.78 1012.54 1012.29 1012.06 1011.86 1011.71 1011.61 1011.54 1011.49 1011.44 1011.35 1011.23 1011.06 1010.86 1010.62 1010.36 1010.09
1012.50 1012.07 1011.70 1011.48 1011.49 1011.78 1012.34 1013.14 1014.09 1015.07 1015.95 1016.63 1017.04 1017.13 1016.93 1016.49 1015.89 1015.24 1014.61 1014.08 1013.67 1013.40 1013.23 1013.13 1013.04 1012.93 1012.77 1012.55 1012.29 1012.01 1011.73 1011.47 1011.26 1011.11 1010.99 1010.91 1010.85 1010.79 1010.72 1010.62 1010.50 1010.36 1010.19 1009.99
1012.72 1012.43 1012.20 1012.08 1012.14 1012.42 1012.93 1013.62 1014.42 1015.23 1015.97 1016.53 1016.86 1016.92 1016.74 1016.34 1015.81 1015.22 1014.65 1014.14 1013.73 1013.42 1013.20 1013.02 1012.86 1012.68 1012.45 1012.17 1011.86 1011.53 1011.19 1010.89 1010.62 1010.41 1010.25 1010.14 1010.06 1010.02 1009.99 1009.96 1009.93 1009.87 1009.80 1009.68
1012.89 1012.80 1012.73 1012.74 1012.87 1013.15 1013.58 1014.15 1014.79 1015.44 1016.02 1016.46 1016.72 1016.76 1016.61 1016.27 1015.82 1015.31 1014.79 1014.30 1013.87 1013.50 1013.19 1012.91 1012.63 1012.34 1012.02 1011.67 1011.29 1010.90 1010.51 1010.16 1009.84 1009.58 1009.38 1009.23 1009.15 1009.11 1009.11 1009.13 1009.17 1009.20 1009.21 1009.19
1013.04 1013.16 1013.28 1013.43 1013.63 1013.92 1014.29 1014.74 1015.23 1015.72 1016.15 1016.47 1016.65 1016.68 1016.55 1016.28 1015.90 1015.45 1014.97 1014.48 1014.01 1013.57 1013.15 1012.74 1012.34 1011.93 1011.50 1011.06 1010.62 1010.18 1009.75 1009.36 1009.00 1008.71 1008.47 1008.29 1008.18 1008.13 1008.14 1008.20 1008.29 1008.38 1008.47 1008.53
1013.22 1013.54 1013.83 1014.11 1014.40 1014.70 1015.02 1015.37 1015.72 1016.06 1016.34 1016.55 1016.66 1016.66 1016.54 1016.31 1015.98 1015.57 1015.11 1014.61 1014.09 1013.56 1013.03 1012.49 1011.96 1011.43 1010.91 1010.40 1009.90 1009.42 1008.97 1008.55 1008.18 1007.85 1007.58 1007.38 1007.24 1007.17 1007.17 1007.24 1007.35 1007.48 1007.62 1007.74
1013.49 1013.96 1014.39 1014.78 1015.12 1015.43 1015.72 1015.98 1016.21 1016.41 1016.57 1016.67 1016.70 1016.66 1016.53 1016.31 1016.00 1015.61 1015.14 1014.62 1014.04 1013.42 1012.79 1012.14 1011.50 1010.88 1010.28 1009.71 1009.18 1008.69 1008.23 1007.81 1007.42 1007.08 1006.78 1006.55 1006.37 1006.27 1006.25 1006.30 1006.40 1006.55 1006.71 1006.87
1013.88 1014.44 1014.94 1015.39 1015.77 1016.08 1016.32 1016.51 1016.64 1016.73 1016.77 1016.77 1016.72 1016.62 1016.45 1016.22 1015.91 1015.51 1015.02 1014.46 1013.83 1013.15 1012.43 1011.70 1010.98 1010.30 1009.65 1009.06 1008.51 1008.02 1007.56 1007.14 1006.76 1006.40 1006.08 1005.81 1005.60 1005.46 1005.40 1005.41 1005.49 1005.62 1005.79 1005.95
1014.40 1014.96 1015.48 1015.93 1016.31 1016.59 1016.79 1016.90 1016.94 1016.93 1016.87 1016.78 1016.65 1016.48 1016.27 1016.00 1015.66 1015.24 1014.74 1014.14 1013.47 1012.74 1011.98 1011.20 1010.44 1009.72 1009.06 1008.45 1007.91 1007.42 1006.98 1006.56 1006.17 1005.81 1005.47 1005.16 1004.91 1004.72 1004.61 1004.58 1004.62 1004.72 1004.86 1005.02
1015.00 1015.50 1015.96 1016.37 1016.69 1016.93 1017.07 1017.11 1017.08 1016.98 1016.84 1016.66 1016.45 1016.23 1015.96 1015.65 1015.29 1014.84 1014.32 1013.71 1013.02 1012.27 1011.49 1010.70 1009.92 1009.19 1008.53 1007.92 1007.38 1006.90 1006.46 1006.04 1005.64 1005.25 1004.88 1004.54 1004.25 1004.01 1003.85 1003.77 1003.77 1003.84 1003.95 1004.09
1015.58 1015.97 1016.34 1016.66 1016.91 1017.07 1017.15 1017.13 1017.03 1016.87 1016.65 1016.41 1016.14 1015.86 1015.55 1015.21 1014.81 1014.36 1013.82 1013.21 1012.53 1011.79 1011.02 1010.23 1009.47 1008.74 1008.07 1007.47 1006.92 1006.42 1005.96 1005.52 1005.10 1004.68 1004.27 1003.89 1003.55 1003.28 1003.07 1002.96 1002.92 1002.95 1003.05 1003.17
1016.05 1016.31 1016.56 1016.77 1016.93 1017.02 1017.03 1016.96 1016.81 1016.60 1016.34 1016.05 1015.74 1015.42 1015.08 1014.71 1014.30 1013.84 1013.32 1012.72 1012.06 1011.35 1010.60 1009.84 1009.09 1008.37 1007.69 1007.07 1006.50 1005.96 1005.46 1004.98 1004.50 1004.04 1003.59 1003.17 1002.79 1002.48 1002.24 1002.09 1002.03 1002.05 1002.13 1002.26
1016.31 1016.45 1016.58 1016.69 1016.76 1016.79 1016.74 1016.63 1016.45 1016.21 1015.93 1015.62 1015.29 1014.95 1014.59 1014.21 1013.80 1013.35 1012.85 1012.28 1011.66 1010.98 1010.26 1009.52 1008.78 1008.05 1007.36 1006.70 1006.07 1005.48 1004.92 1004.37 1003.83 1003.31 1002.81 1002.35 1001.94 1001.59 1001.34 1001.18 1001.11 1001.13 1001.22 1001.36
1016.31 1016.35 1016.38 1016.41 1016.42 1016.39 1016.32 1016.19 1016.00 1015.77 1015.48 1015.17 1014.84 1014.49 1014.13 1013.75 1013.35 1012.92 1012.44 1011.90 1011.31 1010.67 1009.97 1009.25 1008.51 1007.77 1007.04 1006.32 1005.63 1004.97 1004.32 1003.69 1003.09 1002.50 1001.96 1001.45 1001.01 1000.66 1000.39 1000.23 1000.17 1000.20 1000.30 1000.47
1016.04 1016.01 1015.98 1015.96 1015.93 1015.88 1015.81 1015.69 1015.52 1015.30 1015.04 1014.74 1014.42 1014.08 1013.73 1013.36 1012.97 1012.55 1012.09 1011.58 1011.01 1010.39 1009.72 1009.00 1008.25 1007.48 1006.70 1005.92 1005.16 1004.41 1003.68 1002.98 1002.30 1001.67 1001.08 1000.55 1000.09 999.73 999.47 999.31 999.26 999.30 999.44 999.63
1015.53 1015.47 1015.42 1015.38 1015.34 1015.31 1015.26 1015.17 1015.04 1014.86 1014.64 1014.37 1014.07 1013.75 1013.40 1013.04 1012.65 1012.24 1011.79 1011.29 1010.74 1010.12 1009.45 1008.72 1007.95 1007.14 1006.32 1005.48 1004.65 1003.83 1003.04 1002.28 1001.55 1000.88 1000.26 999.72 999.26 998.90 998.64 998.49 998.45 998.51 998.66 998.88
1014.88 1014.80 1014.75 1014.73 1014.72 1014.72 1014.71 1014.68 1014.60 1014.48 1014.30 1014.07 1013.80 1013.48 1013.15 1012.78 1012.39 1011.97 1011.51 1011.01 1010.45 1009.83 1009.15 1008.40 1007.61 1006.77 1005.90 1005.02 1004.14 1003.27 1002.44 1001.64 1000.90 1000.21 999.60 999.06 998.61 998.26 998.01 997.86 997.82 997.88 998.03 998.25
Thickness
5787 5767 5757 5767 5774 5774 5776 5773 5771 5784 5803 5797 5782 5772 5772 5777 5775 5768 5767 5765 5763 5761 5760 5760 5760 5758 5755 5752 5751 5746 5738 5739 5735 5730 5728 5728 5729 5732 5735 5737 5738 5737 5736 5734
5764 5759 5779 5790 5792 5786 5780 5770 5769 5781 5797 5790 5769 5754 5757 5760 5756 5753 5748 5744 5742 5743 5745 5746 5745 5744 5742 5742 5743 5741 5736 5733 5732 5728 5726 5725 5724 5725 5729 5732 5733 5733 5731 5729
5759 5771 5790 5787 5781 5777 5775 5770 5770 5772 5780 5779 5769 5742 5741 5745 5749 5747 5741 5733 5729 5728 5729 5733 5734 5734 5734 5733 5731 5729 5728 5726 5725 5723 5722 5722 5721 5719 5720 5721 5722 5725 5726 5724
5764 5778 5781 5777 5775 5777 5762 5782 5781 5775 5758 5742 5753 5723 5724 5727 5729 5730 5728 5724 5720 5719 5722 5725 5727 5727 5726 5723 5722 5719 5718 5715 5714 5715 5714 5713 5710 5709 5712 5713 5715 5717 5718 5718
5758 5771 5771 5768 5776 5781 5775 5786 5778 5769 5753 5738 5737 5720 5711 5717 5709 5710 5714 5716 5713 5713 5714 5716 5717 5717 5715 5713 5711 5709 5707 5705 5704 5704 5703 5703 5702 5702 5705 5706 5707 5709 5710 5711
5769 5782 5781 5779 5787 5787 5785 5774 5760 5745 5731 5715 5721 5713 5698 5702 5700 5700 5705 5708 5708 5706 5707 5709 5709 5707 5704 5701 5698 5696 5692 5690 5690 5691 5691 5690 5690 5691 5692 5693 5695 5697 5699 5701
5756 5771 5784 5788 5775 5780 5773 5738 5711 5708 5697 5699 5714 5703 5695 5704 5707 5704 5703 5703 5703 5701 5699 5699 5699 5696 5692 5689 5686 5683 5679 5676 5677 5677 5677 5677 5677 5677 5677 5678 5680 5682 5685 5688
5732 5738 5770 5781 5773 5762 5763 5740 5707 5695 5691 5695 5704 5694 5695 5707 5706 5705 5704 5701 5698 5693 5692 5691 5689 5685 5683 5680 5676 5672 5669 5666 5665 5664 5663 5663 5663 5662 5663 5664 5665 5667 5669 5673
5731 5737 5774 5783 5784 5773 5755 5743 5739 5712 5708 5692 5690 5690 5694 5700 5698 5697 5695 5691 5687 5684 5682 5679 5676 5673 5670 5667 5664 5661 5657 5655 5653 5651 5650 5648 5648 5648 5648 5649 5651 5653 5655 5659
5754 5741 5760 5775 5777 5771 5763 5750 5726 5708 5691 5681 5687 5684 5680 5684 5685 5686 5683 5680 5678 5676 5672 5670 5666 5663 5659 5654 5650 5645 5641 5638 5636 5635 5633 5633 5632 5632 5632 5632 5634 5636 5639 5642
5760 5738 5743 5754 5750 5747 5748 5739 5721 5704 5695 5679 5671 5676 5694 5688 5686 5680 5676 5673 5670 5667 5664 5661 5657 5653 5648 5641 5634 5627 5621 5618 5615 5613 5612 5612 5612 5613 5613 5613 5615 5618 5621 5625
5759 5733 5723 5738 5754 5759 5747 5736 5720 5698 5691 5683 5668 5669 5697 5688 5681 5675 5669 5666 5662 5658 5653 5648 5643 5636 5629 5622 5616 5609 5603 5598 5595 5593 5590 5590 5590 5589 5589 5591 5594 5598 5601 5605
5755 5728 5707 5712 5724 5738 5732 5732 5723 5703 5685 5675 5662 5665 5686 5678 5671 5666 5660 5655 5650 5646 5640 5633 5626 5619 5613 5607 5601 5596 5590 5585 5582 5578 5574 5572 5570 5569 5569 5570 5572 5575 5579 5584
5759 5725 5710 5698 5705 5719 5715 5717 5714 5698 5676 5669 5667 5662 5662 5662 5657 5653 5648 5643 5638 5632 5625 5618 5611 5606 5601 5596 5590 5585 5581 5576 5572 5568 5564 5561 5559 5558 5558 5558 5557 5558 5561 5564
5749 5724 5725 5722 5726 5721 5712 5709 5705 5693 5685 5669 5666 5657 5651 5651 5648 5643 5638 5632 5627 5621 5614 5608 5602 5596 5591 5586 5582 5578 5574 5570 5566 5561 5557 5555 5555 5553 5552 5551 5550 5550 5551 5553
5740 5725 5720 5714 5721 5716 5705 5703 5699 5692 5684 5674 5663 5652 5653 5649 5643 5636 5629 5624 5617 5610 5605 5600 5594 5589 5584 5580 5576 5573 5568 5565 5560 5556 5552 5550 5548 5546 5545 5545 5545 5545 5545 5546
5733 5723 5710 5702 5713 5710 5685 5691 5687 5678 5671 5661 5645 5642 5643 5637 5632 5625 5618 5611 5603 5600 5596 5591 5586 5581 5577 5572 5568 5563 5559 5555 5551 5547 5544 5542 5540 5539 5538 5539 5539 5538 5539 5539
5731 5717 5700 5693 5693 5677 5684 5698 5689 5673 5659 5655 5647 5640 5634 5627 5623 5619 5611 5602 5597 5592 5588 5583 5577 5573 5568 5562 5556 5551 5546 5541 5537 5534 5532 5531 5529 5529 5530 5529 5530 5531 5532 5532
5735 5718 5696 5681 5677 5678 5685 5688 5682 5668 5652 5647 5639 5634 5630 5625 5617 5610 5605 5597 5588 5583 5578 5572 5567 5561 5555 5548 5541 5536 5531 5526 5522 5520 5517 5516 5515 5515 5517 5519 5520 5522 5523 5525
5725 5714 5693 5681 5674 5665 5671 5684 5686 5669 5644 5643 5636 5627 5621 5611 5596 5596 5597 5589 5582 5576 5570 5563 5556 5549 5541 5534 5527 5520 5515 5509 5506 5504 5502 5501 5500 5501 5503 5506 5509 5512 5514 5517
5707 5695 5683 5675 5669 5668 5674 5679 5670 5639 5631 5636 5630 5619 5610 5599 5591 5592 5590 5583 5575 5569 5562 5554 5546 5537 5530 5523 5515 5508 5502 5497 5494 5492 5490 5488 5487 5488 5491 5494 5498 5501 5505 5508
5697 5684 5676 5666 5657 5657 5674 5668 5649 5637 5637 5631 5624 5616 5608 5601 5595 5589 5581 5574 5568 5562 5556 5548 5540 5532 5523 5514 5505 5499 5493 5489 5485 5481 5479 5479 5479 5479 5483 5485 5488 5491 5495 5499
5699 5691 5679 5671 5664 5669 5670 5660 5653 5643 5635 5630 5622 5616 5608 5599 5591 5583 5575 5568 5562 5556 5550 5543 5534 5527 5519 5509 5500 5494 5490 5485 5480 5475 5473 5473 5473 5473 5474 5476 5479 5483 5488 5492
5704 5702 5686 5676 5673 5669 5663 5659 5654 5648 5640 5632 5624 5615 5605 5595 5586 5577 5570 5563 5557 5552 5546 5539 5531 5523 5516 5507 5499 5491 5487 5482 5477 5473 5471 5469 5469 5469 5470 5472 5475 5478 5483 5487
5703 5696 5681 5674 5674 5669 5663 5658 5653 5646 5638 5630 5621 5612 5602 5591 5581 5573 5565 5559 5554 5549 5543 5535 5526 5519 5512 5505 5499 5493 5487 5482 5477 5473 5470 5469 5468 5468 5469 5471 5473 5477 5482 5486
5697 5687 5675 5666 5668 5661 5656 5656 5652 5642 5633 5625 5616 5607 5598 5587 5577 5569 5562 5556 5552 5547 5541 5534 5526 5518 5512 5506 5500 5495 5490 5484 5479 5475 5472 5470 5469 5469 5470 5472 5475 5478 5481 5487